{"data":{"norad_id":51462,"intl_designator":"2022-010G","name":"STARLINK-3166","alt_names":[],"object_type":"PAYLOAD","status":"ACTIVE","operator":null,"country":"US","launch_date":"2022-02-03","launch_site_code":"AFETR","launch_vehicle":null,"mission":null,"orbit_class":"UNKNOWN","rcs_meters":null,"size_class":null,"mass_kg":null,"dimensions":null,"purposes":["comms"],"wikipedia_slug":null,"has_3d_model":false,"image_url":null,"decayed_at":null,"tle_current":{"epoch":"2026-05-25T03:24:25.916832Z","epoch_age_seconds":69702,"freshness":"FRESH","line1":"1 51462U 22010G   26145.14196663  .00000030  00000+0  20004-4 0  9999","line2":"2 51462  53.2138 295.9222 0001523  90.6084 269.5083 15.08840612238361","mean_motion":15.08840612,"eccentricity":0.0001523,"inclination_deg":53.2138,"raan_deg":295.9222,"arg_perigee_deg":90.6084,"mean_anomaly_deg":269.5083,"bstar":2.0004e-5,"rev_number":23836,"period_min":95.437515967392,"perigee_km":538.68792542723,"apogee_km":540.79511122391,"semimajor_km":6917.8785183256,"source":"CELESTRAK","updated_at":"2026-05-25T13:38:16.917784Z"}}}